GW1024 Weather Reports


Display with metric or nautical units.
time (UTC)temp
F
wind
direction
speed
MPH
gust
MPH
rain 1hr
in
rain 24hr
in
rain mn
in
humidity
%
barometer
mb
20260510103043 51 0 0.0 0.0 0.00 0.00 0.00 95 1012.1
20260510101536 51 0 0.0 0.0 0.00 0.00 0.00 95 1011.9
20260510100047 52 0 0.0 0.0 0.00 0.00 0.00 95 1011.6
20260510094543 52 0 0.0 0.0 0.00 0.00 0.00 95 1011.5
20260510093034 52 0 0.0 0.0 0.00 0.00 0.00 94 1011.4
20260510091533 53 0 0.0 0.0 0.00 0.00 0.00 94 1011.3
20260510090035 54 0 0.0 0.0 0.00 0.00 0.00 94 1011.1
20260510084546 54 0 0.0 0.0 0.00 0.00 0.00 94 1011.1
20260510083038 55 0 0.0 0.0 0.00 0.00 0.00 93 1011.0
20260510081534 56 0 0.0 0.0 0.00 0.00 0.00 93 1010.9
20260510080032 56 0 0.0 0.0 0.00 0.00 0.00 93 1010.7
20260510074536 56 0 0.0 0.0 0.00 0.00 0.00 93 1010.7
20260510073043 56 0 0.0 0.0 0.00 0.00 0.00 93 1010.7
20260510071543 56 0 0.0 0.0 0.00 0.00 0.00 92 1010.7
20260510070035 57 0 0.0 0.0 0.00 0.00 0.00 91 1010.7
20260510064531 57 0 0.0 0.0 0.00 0.00 0.00 89 1010.6
20260510063041 58 0 0.0 0.0 0.00 0.00 0.00 89 1010.4
20260510061537 59 0 0.0 0.0 0.00 0.00 0.00 88 1010.6
20260510060038 59 0 0.0 0.0 0.00 0.00 0.00 88 1010.6
20260510054534 59 0 0.0 0.0 0.00 0.00 0.00 87 1010.3
20260510053042 60 0 0.0 0.0 0.00 0.00 0.00 85 1010.6
20260510051552 60 0 0.0 0.0 0.00 0.00 0.00 84 1010.3
20260510050035 61 0 0.0 0.0 0.00 0.00 0.00 83 1010.5
20260510044537 61 0 0.0 1.0 0.00 0.00 0.00 82 1010.3
20260510043045 61 0 0.0 1.0 0.00 0.00 0.00 82 1010.3
20260510041535 61 0 0.0 1.0 0.00 0.00 0.00 81 1010.3
20260510040035 61 0 0.0 1.0 0.00 0.00 0.00 81 1010.2
20260510034534 61 0 0.0 1.0 0.00 0.00 0.00 79 1010.2
20260510033033 61 0 0.0 5.0 0.00 0.00 0.00 79 1010.2
20260510031536 60 195 1.0 3.0 0.00 0.00 0.00 80 1010.1
20260510030034 59 0 0.0 0.0 0.00 0.00 0.00 81 1010.0
20260510024547 59 0 0.0 0.0 0.00 0.00 0.00 81 1009.9
20260510023031 59 0 0.0 0.0 0.00 0.00 0.00 81 1009.7
20260510021536 59 0 0.0 1.0 0.00 0.00 0.00 80 1009.6
20260510020035 59 0 0.0 0.0 0.00 0.00 0.00 79 1009.5
20260510014534 59 0 0.0 0.0 0.00 0.00 0.00 78 1009.5
20260510013035 60 0 0.0 0.0 0.00 0.00 0.00 78 1009.2
20260510011538 61 0 0.0 0.0 0.00 0.00 0.00 75 1009.0
20260510010038 62 0 0.0 0.0 0.00 0.00 0.00 73 1008.9
20260510004537 63 0 0.0 0.0 0.00 0.00 0.00 70 1008.8
20260510003036 65 0 0.0 0.0 0.00 0.00 0.00 65 1008.6
20260510001540 67 0 0.0 0.0 0.00 0.00 0.00 63 1008.4
20260510000044 69 0 0.0 1.0 0.00 0.00 0.00 60 1008.2
20260509234538 70 213 0.0 2.0 0.00 0.00 0.00 58 1008.2
20260509233036 71 192 0.0 3.0 0.00 0.00 0.00 54 1008.2
20260509231536 72 157 0.0 7.0 0.00 0.00 0.00 53 1008.1
20260509230034 73 198 1.0 2.0 0.00 0.00 0.00 52 1008.1
20260509224534 74 206 1.0 3.0 0.00 0.00 0.00 49 1008.0
20260509223034 74 208 2.0 6.0 0.00 0.00 0.00 49 1008.1
20260509221600 74 217 2.0 4.0 0.00 0.00 0.00 50 1008.1
20260509220036 74 234 0.0 5.0 0.00 0.00 0.00 49 1008.1
20260509214536 75 197 0.0 3.0 0.00 0.00 0.00 47 1008.0
20260509213035 75 0 1.0 4.0 0.00 0.00 0.00 47 1008.0
20260509211534 76 251 1.0 5.0 0.00 0.00 0.00 46 1007.9
20260509210034 76 221 1.0 9.0 0.00 0.00 0.00 48 1007.7
20260509204535 77 316 1.0 6.0 0.00 0.00 0.00 46 1007.6
20260509203041 78 264 1.0 5.0 0.00 0.00 0.00 47 1007.4
20260509201535 76 243 2.0 13.0 0.00 0.00 0.00 48 1007.5
20260509200036 76 360 2.0 7.0 0.00 0.00 0.00 47 1007.6
20260509194532 75 0 2.0 7.0 0.00 0.00 0.00 48 1008.0
20260509193044 74 282 0.0 3.0 0.00 0.00 0.00 53 1008.1
20260509191548 74 176 1.0 7.0 0.00 0.00 0.00 51 1008.3
20260509190044 74 0 1.0 9.0 0.00 0.00 0.00 51 1008.6
20260509184542 74 259 3.0 11.0 0.00 0.00 0.00 52 1008.8
20260509183040 76 178 4.0 13.0 0.00 0.00 0.00 48 1008.6
20260509181535 74 259 4.0 12.0 0.00 0.00 0.00 52 1008.8
20260509180031 74 330 2.0 10.0 0.00 0.00 0.00 52 1009.2
20260509174535 74 227 4.0 13.0 0.00 0.00 0.00 53 1009.4
20260509173050 74 231 4.0 11.0 0.00 0.00 0.00 56 1009.5
20260509171541 75 209 5.0 17.0 0.00 0.00 0.00 52 1009.7
20260509170043 72 218 5.0 14.0 0.00 0.00 0.00 54 1009.9
20260509164547 73 220 2.0 8.0 0.00 0.00 0.00 55 1010.2
20260509163047 71 132 3.0 13.0 0.00 0.00 0.00 54 1010.3
20260509161535 71 223 2.0 11.0 0.00 0.00 0.00 55 1010.3
20260509160032 72 226 5.0 14.0 0.00 0.00 0.00 53 1010.3
20260509154542 72 295 2.0 13.0 0.00 0.00 0.00 55 1010.5
20260509153037 70 195 2.0 12.0 0.00 0.00 0.00 57 1010.7
20260509151539 69 272 4.0 10.0 0.00 0.00 0.00 59 1011.0
20260509150035 69 228 4.0 12.0 0.00 0.00 0.00 63 1010.8
20260509144544 66 199 2.0 14.0 0.00 0.00 0.00 67 1011.1
20260509143035 65 238 3.0 11.0 0.00 0.00 0.00 69 1011.5
20260509141546 64 179 3.0 8.0 0.00 0.00 0.00 69 1011.6
20260509140035 64 189 2.0 9.0 0.00 0.00 0.00 69 1011.7
20260509134549 64 218 3.0 9.0 0.00 0.00 0.00 68 1011.8
20260509133037 63 201 1.0 9.0 0.00 0.00 0.00 71 1012.0
20260509131552 62 69 3.0 9.0 0.00 0.00 0.00 70 1011.9
20260509130047 62 196 1.0 8.0 0.00 0.00 0.00 72 1011.8
20260509124541 61 132 1.0 6.0 0.00 0.00 0.00 76 1012.0
20260509123048 58 236 2.0 5.0 0.00 0.00 0.00 78 1012.0
20260509121559 57 175 2.0 8.0 0.00 0.00 0.00 81 1012.1
20260509120034 55 208 1.0 7.0 0.00 0.00 0.00 82 1012.0
20260509114531 54 202 1.0 8.0 0.00 0.00 0.00 84 1012.0
20260509113035 53 238 0.0 4.0 0.00 0.00 0.00 87 1012.1
20260509111532 51 134 0.0 3.0 0.00 0.00 0.00 89 1012.0
20260509110039 49 0 0.0 2.0 0.00 0.00 0.00 91 1012.1
20260509104530 47 0 0.0 0.0 0.00 0.00 0.00 91 1011.8